Tracking 28356 objects as of 7-Dec-2023
HD Live streaming from Space Station
objects crossing your sky now

COSMOS 1365 FUEL CORE

Track COSMOS 1365 FUEL CORE now!
10-day predictions


NORAD ID: 13594
Int'l Code: 1982-043D
Perigee: 878.1 km
Apogee: 971.3 km
Inclination: 65.1 °
Period: 103.4 minutes
Semi major axis: 7295 km
RCS: 0.1563 m2 (medium)
Launch date: May 14, 1982
Source: Commonwealth of Independent States (former USSR) (CIS)
Launch site: TYURATAM MISSILE AND SPACE COMPLEX (TTMTR)

Note: This is SATELLITE DEBRIS
Your satellite tracking list
Your tracking list is empty




NASA's NSSDC Master Catalog

Two Line Element Set (TLE):
1 13594U 82043D   23340.61801467 -.00000076  00000-0  10655-4 0  9999
2 13594  65.0674 209.8424 0063906 304.7576  54.7483 13.93160271117213
Source of the keplerian elements: AFSPC